Yatton Keynell, United Kingdom

6:58 PM GMT on March 18, 2019 (GMT +0000)
Yatton Keynell

Weather History for 03740 - July, 2011

Change the Weather History Date:

Friday, July 8, 2011

  Actual Average Record
Temperature  
Mean Temperature 58 °F -  
Max Temperature 63 °F 69 °F - ()
Min Temperature 52 °F 53 °F - ()
Degree Days  
Heating Degree Days 8    
Growing Degree Days 8 (Base 50)    
Moisture  
Dew Point 53 °F    
Average Humidity 88    
Maximum Humidity 100    
Minimum Humidity 63    
Precipitation  
Precipitation 0.59 in 0.07 in - ()
Sea Level Pressure  
Sea Level Pressure 29.60 in    
Wind  
Wind Speed 9 mph ()    
Max Wind Speed 22 mph    
Max Gust Speed 37 mph    
Visibility 6.7 miles    
Events Rain    
T = Trace of Precipitation, MM = Missing Value Source: Averaged Metar Reports

Daily Weather History Graph

Daily Weather History Graph

Search for Another Location

Airport or City:

Astronomy

Jul. 08, 2011 Rise Set
Actual Time 5:00 AM BST 9:24 PM BST
Civil Twilight 4:14 AM BST 10:10 PM BST
Nautical Twilight 3:04 AM BST 11:19 PM BST
Astronomical Twilight 1:45 AM BST 12:40 AM BST
Moon 2:13 PM BST (7/8) No Moon Set
Length of Visible Light 17h 56m
Length of Day
16h 24m
First Quarter, 52% of the Moon is Illuminated
Jul 8
First Quarter
Jul 15
Full
Jul 23
Last Quarter
Jul 30
New
Aug 6
First Quarter

Hourly Weather History & Observations

Time (BST) Temp. Dew Point Humidity Pressure Visibility Wind Dir Wind Speed Gust Speed Precip Events Conditions
12:50 AM 52 °F 50 °F 91% 29.60 in 14 mi SSE 4.6 mph - -   Scattered Clouds
12:50 AM 51.8 °F 50.0 °F 94% 29.59 in 6.2 mi SSE 4.6 mph - N/A   Scattered Clouds
1:50 AM 53.6 °F 50.0 °F 88% 29.59 in 6.2 mi South 5.8 mph - N/A   Mostly Cloudy
2:50 AM 53.6 °F 51.8 °F 94% 29.56 in 6.2 mi SSE 6.9 mph - N/A   Mostly Cloudy
3:50 AM 53 °F 51 °F 89% 29.59 in 11 mi South 9.2 mph - -   Overcast
3:50 AM 53.6 °F 50.0 °F 88% 29.56 in 6.2 mi South 9.2 mph - N/A   Overcast
4:50 AM 51.8 °F 50.0 °F 94% 29.56 in 6.2 mi SSE 9.2 mph - N/A   Overcast
5:50 AM 51.8 °F 50.0 °F 94% 29.56 in 5.0 mi SSE 13.8 mph - N/A   Mostly Cloudy
6:50 AM 53 °F 52 °F 94% 29.56 in 4 mi South 12.7 mph - - Rain Rain
6:50 AM 53.6 °F 51.8 °F 94% 29.53 in 4.3 mi South 12.7 mph - N/A Rain Rain
7:50 AM 53.6 °F 51.8 °F 94% 29.56 in 6.2 mi South 11.5 mph - N/A   Overcast
8:50 AM 55.4 °F 53.6 °F 94% 29.56 in 6.2 mi South 12.7 mph - N/A   Overcast
9:50 AM 58 °F 53 °F 80% 29.57 in 12 mi South 12.7 mph - -   Partly Cloudy
9:50 AM 59.0 °F 53.6 °F 82% 29.56 in 6.2 mi South 12.7 mph - N/A   Mostly Cloudy
10:41 AM 57.2 °F 51.8 °F 82% 29.56 in 2.5 mi SSW 10.4 mph - N/A Rain Heavy Rain Showers
10:50 AM 57.2 °F 53.6 °F 88% 29.56 in 6.2 mi SSW 12.7 mph 24.2 mph N/A   Mostly Cloudy
11:24 AM 57.2 °F 53.6 °F 88% 29.56 in 1.9 mi SSW 12.7 mph - N/A Rain Heavy Rain Showers
11:39 AM 59.0 °F 55.4 °F 88% 29.56 in 6.2 mi SSW 9.2 mph - N/A   Scattered Clouds
11:50 AM 59.0 °F 53.6 °F 82% 29.56 in 6.2 mi SSW 11.5 mph - N/A   Mostly Cloudy
12:50 PM 61 °F 53 °F 68% 29.60 in 16 mi SSW 16.1 mph - - Rain Light Rain Showers
12:50 PM 60.8 °F 53.6 °F 77% 29.59 in 6.2 mi SSW 16.1 mph 28.8 mph N/A   Mostly Cloudy
1:50 PM 62.6 °F 50.0 °F 63% 29.59 in 6.2 mi SSW 15.0 mph 27.6 mph N/A   Mostly Cloudy
2:50 PM 60.8 °F 51.8 °F 72% 29.59 in 6.2 mi SSW 15.0 mph - N/A   Mostly Cloudy
3:50 PM 56 °F 53 °F 86% 29.64 in 2 mi SW 21.9 mph - - Rain Light Rain Showers
3:50 PM 55.4 °F 53.6 °F 94% 29.62 in 2.2 mi SW 21.9 mph 33.4 mph N/A   Mostly Cloudy
4:26 PM 59.0 °F 53.6 °F 82% 29.62 in 6.2 mi SSW 11.5 mph 23.0 mph N/A   Mostly Cloudy
4:50 PM 59.0 °F 53.6 °F 82% 29.62 in 6.2 mi SSW 9.2 mph - N/A   Mostly Cloudy
5:14 PM 53.6 °F 51.8 °F 94% 29.65 in 6.2 mi SW 19.6 mph 36.8 mph N/A Rain Rain Showers
5:50 PM 55.4 °F 53.6 °F 94% 29.65 in 6.2 mi SSW 6.9 mph - N/A   Mostly Cloudy
6:50 PM 57 °F 55 °F 90% 29.66 in 11 mi SSW 9.2 mph - - Rain Light Rain Showers
6:50 PM 57.2 °F 55.4 °F 94% 29.65 in 6.2 mi SSW 9.2 mph - N/A   Mostly Cloudy
7:50 PM 57.2 °F 53.6 °F 88% 29.65 in 6.2 mi SSW 9.2 mph - N/A Rain Light Rain Showers
8:50 PM 55.4 °F 53.6 °F 94% 29.68 in 6.2 mi SSW 8.1 mph - N/A   Scattered Clouds
9:50 PM 56 °F 53 °F 88% 29.71 in 12 mi SW 6.9 mph - - Rain Light Rain Showers
9:50 PM 55.4 °F 53.6 °F 94% 29.68 in 6.2 mi SW 6.9 mph - N/A Rain Light Rain Showers
10:50 PM 55.4 °F 53.6 °F 94% 29.71 in 6.2 mi SSW 4.6 mph - N/A   Scattered Clouds
11:50 PM 53.6 °F 53.6 °F 100% 29.71 in 6.2 mi SSW 6.9 mph - N/A   Partly Cloudy